Preview of NWS' New Version of Forecast
This preview is not operational and should not be used for support decisions.

Regional Weather Roundup (RWR)

Issued by National Weather Service (NWS)

                            
000
ASUS42 KTBW 241916
RWRFL 
FLORIDA REGIONAL WEATHER ROUNDUP
NATIONAL WEATHER SERVICE TAMPA BAY RUSKIN FL
300 PM EDT SUN MAR 24 2019

NOTE: "FAIR" INDICATES FEW OR NO CLOUDS BELOW 12,000 FEET WITH NO
SIGNIFICANT WEATHER AND/OR OBSTRUCTIONS TO VISIBILITY.

FLZ001>010-012>015-112-114-115-242000-
PANHANDLE FLORIDA
  
CITY           SKY/WX    TMP DP  RH WIND       PRES   REMARKS
PENSACOLA      FAIR      70  51  51 S7        30.21F                  
PENSACOLA NAS  FAIR      70  54  56 SE9       30.21F                  
MILTON NAS     FAIR      72  52  49 MISG      30.20F                  
CRESTVIEW      LGT RAIN  76  38  25 S10       30.22F                  
PANAMA CITY    FAIR      72  51  47 S14       30.21F                  
APALACHICOLA   FAIR      69  60  73 SE10      30.23F                  

STATION/POSITION SKY/WX   TEMP    WIND        PRES    WAVE   SWELL
                          AIR SEA DIR/SP/G            HT/PER HT/PER
                          (F)     (DEG/KT/KT) (MB)    (FT/S) (FT/S)
30.1N   87.6W                                 1023.5F   1
29.2N   88.2W                     110/  8/ 10 1023.3F   1/ 4
PANAMA CITY BEAC           64 66              1023.9F
TOWER C                    66     130/  8/  9 1023.6F

$$
FLZ011-016>038-118-127-128-134-139-239-242000-
NORTH FLORIDA
  
CITY           SKY/WX    TMP DP  RH WIND       PRES   REMARKS
MARIANNA       FAIR      78  46  32 S10G16    30.18F                  
TALLAHASSEE    FAIR      76  55  48 S10G29    30.21F                  
PERRY          FAIR      79  54  41 W7        30.22F                  
LIVE OAK       SUNNY     79  43  27 CALM      30.21F                  
CROSS CITY     FAIR      79  50  36 NE3       30.21F                  
LAKE CITY      FAIR      77  45  31 W7        30.21F                  
GAINESVILLE    FAIR      81  51  35 VRB5      30.24F                  
WILLISTON        N/A    N/A N/A N/A MISG        N/A                   
PALATKA        FAIR      79  48  34 S5G16     30.22F                  
MAYPORT NAS    FAIR      72  58  61 E12       30.25F                  
JACKSONVILLE   FAIR      78  48  34 VRB3      30.21F                  
JAX NAS        FAIR      77  49  37 S8        30.23F                  
JAX CECIL      NOT AVBL                                               
FERNANDINA BEA FAIR      74  53  47 E9        30.24F                  
ST AUGUSTINE   FAIR      72  57  59 E9        30.25F                  
PALM COAST     SUNNY     75  54  46 SE14G23   30.23F                  

STATION/POSITION SKY/WX   TEMP    WIND        PRES    WAVE   SWELL
                          AIR SEA DIR/SP/G            HT/PER HT/PER
                          (F)     (DEG/KT/KT) (MB)    (FT/S) (FT/S)
SHELL POINT      NOT AVBL
KEATON BEACH               68     190/ 11/ 12 1023.6F
CEDAR KEY                  71     230/  5/  7 1023.2F
FERNANDINA                 76 64              1025.0F
30.7N   81.3W                 67                N/A     2/11   2/11
MAYPORT                    67 63              1024.4F
31.4N   80.9W              65 63   60/  6/  6 1024.9F   2/ 9   2/ 9
ST AUGUSTINE               66 66   40/  8/  9 1024.3F

$$
FLZ040-043>046-052-053-057-058-063-144-242000-
INTERIOR CENTRAL FLORIDA
  
CITY           SKY/WX    TMP DP  RH WIND       PRES   REMARKS
OCALA          FAIR      79  52  38 VRB3G17   30.21F                  
LEESBURG       FAIR      78  54  43 S8        30.22F                  
SANFORD        FAIR      79  55  43 SE12      30.21F                  
ORLANDO EXEC   FAIR      78  54  43 SE8       30.21F                  
ORLANDO INTL   PTSUNNY   79  54  41 SE8       30.20F                  
KISSIMMEE      PTSUNNY   77  56  48 S6        30.21F                  
WINTER HAVEN   PTSUNNY   79  55  43 E13       30.21F                  
LAKELAND       MOSUNNY   79  54  41 S6        30.20F                  
BARTOW         MOSUNNY   79  54  41 SE9       30.18F                  
SEBRING        FAIR      80  56  43 SE8       30.19F                  
OKEECHOBEE     PTSUNNY   79  55  44 S10       30.19F                  

$$
FLZ041-047-054-059-064-141-147-242000-
EAST CENTRAL FLORIDA
  
CITY           SKY/WX    TMP DP  RH WIND       PRES   REMARKS
ORMOND BEACH   SUNNY     75  54  46 E8        30.23F                  
DAYTONA BEACH  PTSUNNY   76  55  48 E10       30.22F                  
DELAND         FAIR      79  54  41 S5        30.21F                  
TITUSVILLE     PTSUNNY   81  55  41 SE12      30.22F                  
PATRICK AFB    FAIR      76  62  61 E12       30.21F                  
MELBOURNE      FAIR      78  58  49 E16       30.20F                  
VERO BEACH     FAIR      78  56  46 SE13      30.21F                  
FT PIERCE      FAIR      78  54  43 E15       30.21F                  
STUART         MOSUNNY   77  57  50 E15       30.21F                  

STATION/POSITION SKY/WX   TEMP    WIND        PRES    WAVE   SWELL
                          AIR SEA DIR/SP/G            HT/PER HT/PER
                          (F)     (DEG/KT/KT) (MB)    (FT/S) (FT/S)
28.5N   80.2W              73     130/ 10/ 16 1023.7F   3/11   2/11
28.9N   78.5W              73 74  130/ 12/ 14 1024.2F   4/11   3/11
TRIDENT PIER               75 68              1024.4F
28.4N   80.5W                 69                N/A     2/12
27.5N   80.2W                 71                N/A     3/12   2/12

$$
FLZ050-056-061-142-242-148-248-149-249-151-251-155-255-
160-260-242000-
WEST CENTRAL FLORIDA
  
CITY           SKY/WX    TMP DP  RH WIND       PRES   REMARKS
CRYSTAL RIVER  FAIR      79  55  44 CALM      30.20F                  
INVERNESS      FAIR      79  55  44 SE5       30.21F                  
BROOKSVILLE    PTSUNNY   81  54  39 S13       30.20F                  
CLEARWATER AIR FAIR      77  52  41 E9        30.19F                  
ST PETE CLEARW FAIR      81  55  40 E10       30.19F                  
TAMPA INTL     FAIR      82  54  37 VRB3      30.19F                  
TAMPA EXEC     FAIR      79  55  44 E8        30.20F                  
PLANT CITY     FAIR      81  54  39 E10       30.21F                  
PETER O KNIGHT CLOUDY    81  57  44 S6        30.19F                  
ST PETERSBURG  FAIR      79  57  46 S5        30.17F                  
SARASOTA       PTSUNNY   78  58  49 W10       30.16F                  
VENICE         PTSUNNY   81  61  50 SW8       30.17F                  

STATION/POSITION SKY/WX   TEMP    WIND        PRES    WAVE   SWELL
                          AIR SEA DIR/SP/G            HT/PER HT/PER
                          (F)     (DEG/KT/KT) (MB)    (FT/S) (FT/S)
27.3N   84.2W                 73                N/A     2/ 3
CLEARWATER BEACH           70 69              1022.7F
MIDDLE TAMPA BAY           76                 1022.4F
VENICE                     74 71  230/  8/  8 1021.5F

$$
FLZ066-069-070-075>078-162-262-165-265-242000-
SOUTHWEST FLORIDA AND KEYS
  
CITY           SKY/WX    TMP DP  RH WIND       PRES   REMARKS
PUNTA GORDA    FAIR      82  52  35 SE8G17    30.18F                  
FT MYERS       PTSUNNY   83  49  30 E7        30.16F                  
SOUTHWEST INTL FAIR      81  52  36 SE8       30.17F                  
NAPLES         PTSUNNY   81  59  47 E9        30.16F                  
MARCO ISLAND   FAIR      81  59  47 E8        30.17F                  
IMMOKALEE      PTSUNNY   82  59  44 SE8G16    30.15F                  
MARATHON       CLOUDY    81  62  52 E13G20    30.15F                  
KEY WEST NAS   PTSUNNY   80  65  59 E17       30.14F                  
KEY WEST INTL  FAIR      80  67  64 E15G24    30.15F                  

STATION/POSITION SKY/WX   TEMP    WIND        PRES    WAVE   SWELL
                          AIR SEA DIR/SP/G            HT/PER HT/PER
                          (F)     (DEG/KT/KT) (MB)    (FT/S) (FT/S)
NAPLES                     79 71              1021.4F
DRY TORTUGAS               75     110/ 18/ 21 1020.3F
SAND KEY                   75                 1020.5F
SOMBRERO KEY               75                 1020.6F
MOLASSES REEF              75     110/ 15       N/A

$$
FLZ067-068-071>074-168-172>174-242000-
SOUTHEAST FLORIDA 
  
CITY           SKY/WX    TMP DP  RH WIND       PRES   REMARKS
W PALM BEACH   PTSUNNY   77  58  51 E16G22    30.20F                  
FT LAUDER-EXEC PTSUNNY   79  58  48 SE15G22   30.18F                  
FT LAUDERDALE  PTSUNNY   78  58  49 E17       30.18F                  
POMPANO BEACH  FAIR      80  58  46 E14       30.19F                  
PEMBROKE PINES CLOUDY    77  56  48 SE12G22   30.20F                  
OPA LOCKA      CLOUDY    78  58  49 SE14      30.19F                  
MIAMI          PTSUNNY   77  58  51 E14G23    30.18F                  
WEST KENDALL   CLOUDY    78  60  53 SE16G24   30.17F                  
HOMESTEAD      NOT AVBL                                               

STATION/POSITION SKY/WX   TEMP    WIND        PRES    WAVE   SWELL
                          AIR SEA DIR/SP/G            HT/PER HT/PER
                          (F)     (DEG/KT/KT) (MB)    (FT/S) (FT/S)
VIRGINIA KEY               74 75              1021.5F
LAKE WORTH                 74 76              1023.6F
FOWEY ROCKS                74 78   80/ 17/ 20 1022.3F
SETTLEMENT POINT           73      80/ 15/ 17 1022.9F

$$